DW1253 Weather Reports


time (UTC)temp
C
wind
direction
speed
KPH
gust
KPH
rain 1hr
cm
rain 24hr
cm
rain mn
cm
humidity
%
barometer
mb
20260904015847 22 225 3.2 8.0 0.00 0.69 0.03 93 1014.0
20260904015337 22 184 3.2 4.8 0.00 0.69 0.03 94 1013.9
20260904014839 22 268 1.6 12.9 0.00 0.69 0.03 93 1013.9
20260904014348 22 254 4.8 12.9 0.00 0.69 0.03 93 1013.9
20260904013842 22 230 3.2 17.7 0.00 0.69 0.03 93 1013.9
20260904013332 22 220 4.8 17.7 0.00 0.69 0.03 93 1013.8
20260904012909 22 211 3.2 19.3 0.00 0.69 0.03 94 1013.7
20260904012330 22 234 8.0 19.3 0.00 0.69 0.03 94 1013.7
20260904011836 22 221 8.0 17.7 0.00 0.69 0.03 93 1013.7
20260904011400 22 252 8.0 19.3 0.00 0.69 0.03 93 1013.7
20260904010837 22 267 9.7 19.3 0.00 0.69 0.03 93 1013.8
20260904010400 22 215 4.8 16.1 0.00 0.69 0.03 93 1013.7
20260904005837 22 226 4.8 16.1 0.00 0.81 0.03 93 1013.6
20260904005337 22 245 6.4 16.1 0.00 0.81 0.03 93 1013.4
20260904004839 22 235 6.4 16.1 0.00 0.81 0.03 93 1013.4
20260904004338 22 259 6.4 16.1 0.00 0.81 0.03 93 1013.3
20260904003843 22 230 6.4 17.7 0.00 0.81 0.03 93 1013.4
20260904003406 22 271 3.2 11.3 0.03 0.81 0.03 93 1013.3
20260904002854 22 42 4.8 16.1 0.03 0.81 0.03 93 1013.1
20260904002352 22 209 6.4 16.1 0.03 0.81 0.03 93 1012.9
20260904001903 23 157 3.2 14.5 0.03 0.81 0.03 93 1012.9
20260904001343 23 227 4.8 14.5 0.03 0.81 0.03 93 1013.1
20260904000910 23 260 4.8 14.5 0.03 0.81 0.03 92 1013.1
20260904000350 23 222 1.6 8.0 0.03 0.81 0.03 92 1013.1
20260903235843 23 199 3.2 8.0 0.03 1.91 0.03 92 1013.3
20260903235340 23 233 3.2 6.4 0.03 1.91 0.03 92 1013.4
20260903234850 23 268 3.2 9.7 0.03 1.91 0.03 92 1013.4
20260903234333 23 231 4.8 9.7 0.03 1.91 0.03 91 1013.5
20260903233838 23 192 1.6 4.8 0.03 1.91 0.03 91 1013.7
20260903233349 23 263 1.6 11.3 0.00 1.88 0.00 91 1013.8
20260903232849 23 243 3.2 11.3 0.00 1.88 0.00 91 1013.8
20260903232331 23 171 3.2 9.7 0.00 1.88 0.00 91 1013.8
20260903231900 23 221 1.6 8.0 0.00 1.88 0.00 91 1013.6
20260903231338 23 200 3.2 8.0 0.00 1.88 0.00 91 1013.6
20260903230847 23 199 3.2 8.0 0.00 1.88 0.00 90 1013.5
20260903230346 23 244 1.6 11.3 0.00 1.88 0.00 90 1013.8
20260903225847 23 254 1.6 11.3 0.00 1.88 0.00 90 1013.8
20260903225341 23 232 3.2 6.4 0.00 1.88 0.00 90 1013.8
20260903224848 23 336 3.2 6.4 0.00 1.88 0.00 90 1013.8
20260903224332 23 222 3.2 8.0 0.00 1.88 0.00 90 1013.8
20260903223840 23 181 4.8 11.3 0.00 1.88 0.00 90 1013.8
20260903223337 23 224 4.8 11.3 0.00 1.88 0.00 90 1013.9
20260903222845 23 215 3.2 9.7 0.00 1.88 0.00 90 1013.8
20260903222343 23 238 1.6 6.4 0.00 1.88 0.00 90 1014.0
20260903221839 23 246 3.2 8.0 0.00 1.88 0.00 90 1014.1
20260903221336 23 227 3.2 14.5 0.00 1.88 0.00 90 1013.8
20260903220854 23 223 4.8 14.5 0.00 1.88 0.00 90 1013.6
20260903220332 23 219 3.2 6.4 0.00 1.88 0.00 90 1013.5
20260903215837 23 222 3.2 6.4 0.00 1.88 0.00 90 1013.4
20260903215342 23 309 1.6 6.4 0.00 1.88 0.00 90 1013.4
20260903214846 23 334 1.6 6.4 0.00 1.88 0.00 90 1013.4
20260903214347 23 187 1.6 6.4 0.00 1.88 0.00 90 1013.2
20260903213848 23 187 3.2 6.4 0.00 1.88 0.00 90 1012.9
20260903213343 23 187 3.2 6.4 0.00 1.88 0.00 90 1012.9
20260903212836 23 187 3.2 9.7 0.00 1.88 0.00 89 1013.0
20260903212336 23 265 3.2 9.7 0.00 1.88 0.00 90 1013.1
20260903211834 23 236 1.6 9.7 0.00 1.88 0.00 89 1013.1
20260903211332 24 240 3.2 11.3 0.00 1.88 0.00 90 1013.3
20260903210838 23 242 4.8 11.3 0.00 1.88 0.00 89 1013.4
20260903210343 24 226 3.2 9.7 0.00 1.88 0.00 90 1013.4
20260903205852 24 227 3.2 8.0 0.00 1.88 0.00 89 1013.4
20260903205352 24 230 3.2 8.0 0.00 1.88 0.00 89 1013.3
20260903204911 24 210 3.2 8.0 0.00 1.88 0.00 89 1013.4
20260903204355 24 112 3.2 6.4 0.00 1.88 0.00 88 1013.5
20260903203833 24 42 3.2 6.4 0.00 1.88 0.00 88 1013.7
20260903203341 24 227 1.6 8.0 0.00 1.88 0.00 88 1013.8
20260903202844 24 209 3.2 11.3 0.00 1.88 0.00 89 1013.8
20260903202411 24 196 3.2 12.9 0.00 1.88 0.00 88 1013.8
20260903201833 24 292 3.2 12.9 0.00 1.88 0.00 88 1013.8
20260903201331 24 200 3.2 11.3 0.00 1.88 0.00 88 1013.9
20260903200831 24 190 4.8 9.7 0.00 1.88 0.00 87 1014.0
20260903200338 24 213 3.2 9.7 0.00 1.88 0.00 88 1013.9
20260903195844 24 192 3.2 9.7 0.00 1.88 0.00 88 1014.2
20260903195348 23 205 3.2 11.3 0.00 1.88 0.00 88 1014.2
20260903194845 23 202 3.2 9.7 0.00 1.88 0.00 87 1014.1
20260903194339 23 202 4.8 14.5 0.00 1.88 0.00 86 1014.1
20260903193836 23 205 6.4 14.5 0.00 1.88 0.00 87 1014.0
20260903193337 23 220 6.4 16.1 0.00 1.88 0.00 86 1014.0
20260903192842 24 252 6.4 16.1 0.00 1.88 0.00 86 1014.1
20260903192350 24 150 3.2 11.3 0.00 1.88 0.00 86 1014.3
20260903191855 24 269 4.8 11.3 0.00 1.88 0.00 86 1014.2
20260903191343 24 160 4.8 9.7 0.00 1.88 0.00 85 1014.4
20260903190844 24 261 3.2 9.7 0.00 1.88 0.00 85 1014.3
20260903190357 25 239 4.8 16.1 0.00 1.88 0.00 84 1014.2
20260903185850 25 186 4.8 16.1 0.00 1.88 0.00 84 1014.0
20260903185344 25 215 4.8 17.7 0.00 1.88 0.00 83 1014.1
20260903184842 25 234 6.4 17.7 0.00 1.88 0.00 83 1014.1
20260903184410 25 155 3.2 9.7 0.00 1.88 0.00 84 1014.2
20260903183830 25 240 4.8 20.9 0.00 1.88 0.00 82 1014.1
20260903183332 25 196 9.7 20.9 0.00 1.88 0.00 81 1014.2
20260903182912 25 238 4.8 12.9 0.00 1.88 0.00 81 1014.2
20260903182352 25 212 4.8 12.9 0.00 1.88 0.00 80 1014.3
20260903181848 25 320 3.2 12.9 0.00 1.88 0.00 82 1014.3
20260903181344 25 182 1.6 6.4 0.00 1.88 0.00 83 1014.2
20260903180849 25 209 3.2 9.7 0.00 1.88 0.00 82 1014.3
20260903180359 25 304 3.2 9.7 0.00 1.88 0.00 82 1014.3
20260903175839 25 245 3.2 11.3 0.00 1.91 0.00 82 1014.3
20260903175338 25 38 3.2 11.3 0.00 1.91 0.00 82 1014.2
20260903174847 25 198 1.6 11.3 0.00 1.91 0.00 83 1014.1
20260903174337 25 251 3.2 6.4 0.00 1.91 0.00 84 1014.1
20260903173832 25 144 3.2 6.4 0.00 1.91 0.00 85 1014.3
20260903173339 25 253 3.2 9.7 0.00 1.91 0.00 84 1014.3
20260903172856 25 235 3.2 16.1 0.00 1.91 0.00 83 1014.4
20260903172353 25 202 6.4 16.1 0.00 1.91 0.00 83 1014.3
20260903171840 25 241 6.4 14.5 0.00 1.91 0.00 84 1014.4
20260903171334 25 190 3.2 14.5 0.00 1.91 0.00 84 1014.3
20260903170839 25 233 8.0 14.5 0.00 1.91 0.00 87 1014.3
20260903170340 24 250 4.8 14.5 0.00 1.91 0.00 87 1014.3
20260903165834 24 240 3.2 11.3 0.00 2.03 0.00 87 1014.5
20260903165334 24 230 4.8 11.3 0.00 2.03 0.00 88 1014.5
20260903164838 24 229 3.2 11.3 0.00 2.03 0.00 87 1014.5
20260903164403 24 209 4.8 11.3 0.00 2.03 0.00 87 1014.6
20260903163831 24 236 3.2 11.3 0.00 2.03 0.00 89 1014.5
20260903163355 23 205 1.6 8.0 0.00 2.03 0.00 88 1014.5
20260903162900 23 244 4.8 14.5 0.00 2.03 0.00 89 1014.6
20260903162341 23 231 4.8 14.5 0.00 2.03 0.00 89 1014.6
20260903161842 23 234 4.8 9.7 0.00 2.03 0.00 90 1014.6
20260903161404 23 239 3.2 9.7 0.00 2.03 0.00 90 1014.5
20260903160903 22 222 1.6 11.3 0.00 2.03 0.00 90 1014.5
20260903160345 22 222 3.2 11.3 0.00 2.03 0.00 90 1014.6
20260903155841 22 269 3.2 9.7 0.00 2.03 0.00 90 1014.7
20260903155345 22 235 4.8 9.7 0.00 2.03 0.00 91 1014.8
20260903154833 22 237 1.6 8.0 0.00 2.03 0.00 92 1014.8
20260903154342 22 194 3.2 11.3 0.00 2.03 0.00 91 1014.9
20260903153844 22 236 4.8 11.3 0.00 2.03 0.00 91 1014.7
20260903153336 22 243 3.2 9.7 0.00 2.03 0.00 92 1014.9
20260903152839 22 230 4.8 8.0 0.00 2.03 0.00 92 1014.9
20260903152338 22 183 3.2 8.0 0.00 2.03 0.00 92 1014.9
20260903151840 22 238 3.2 6.4 0.00 2.03 0.00 92 1015.0
20260903151344 22 221 1.6 9.7 0.00 2.03 0.00 92 1015.0
20260903150848 22 231 3.2 9.7 0.00 2.03 0.00 92 1014.9
20260903150341 22 198 3.2 6.4 0.00 2.03 0.00 92 1014.8
20260903145835 21 198 3.2 9.7 0.00 2.03 0.00 92 1014.9
20260903145337 21 228 4.8 11.3 0.00 2.03 0.00 92 1014.9
20260903144840 22 170 4.8 12.9 0.00 2.03 0.00 92 1014.9
20260903144338 22 222 1.6 12.9 0.00 2.03 0.00 92 1014.9
20260903143905 22 233 1.6 9.7 0.00 2.03 0.00 92 1014.9
20260903143338 22 222 4.8 8.0 0.00 2.03 0.00 92 1014.8
20260903142906 22 220 1.6 11.3 0.00 2.03 0.00 92 1014.9
20260903142356 21 227 4.8 12.9 0.00 2.03 0.00 92 1014.9
20260903141836 21 223 4.8 12.9 0.00 2.03 0.00 93 1014.9
20260903141334 21 233 3.2 8.0 0.00 2.03 0.00 93 1014.9
20260903140836 21 213 4.8 11.3 0.00 2.03 0.00 93 1014.8
20260903140351 21 213 3.2 14.5 0.00 2.03 0.00 93 1014.8
20260903135853 21 236 6.4 12.9 0.00 2.03 0.00 94 1014.7
20260903135332 21 242 6.4 12.9 0.00 2.03 0.00 94 1014.8
20260903134855 21 168 1.6 12.9 0.00 2.03 0.00 95 1014.8
20260903134334 21 201 6.4 12.9 0.00 2.03 0.00 95 1014.9
20260903133832 21 156 3.2 11.3 0.00 2.03 0.00 96 1014.9
20260903133332 21 212 4.8 11.3 0.00 2.03 0.00 96 1014.9
20260903132832 21 225 3.2 12.9 0.00 2.03 0.00 96 1014.9
20260903132353 21 246 3.2 8.0 0.00 2.03 0.00 97 1015.0
20260903131842 21 207 3.2 8.0 0.00 2.03 0.00 97 1015.1
20260903131340 21 236 3.2 8.0 0.00 2.03 0.00 97 1015.3
20260903130855 21 235 1.6 8.0 0.00 2.03 0.00 97 1015.3
20260903130420 21 211 1.6 4.8 0.00 2.03 0.00 97 1015.3